AirNav   Everest Fuels
 
 1029 users online  

PS44 Operations Center Heliport
Bellwood, Pennsylvania, USA

GOING TO BELLWOOD?


FAA INFORMATION EFFECTIVE 18 JUNE 2020

Location

FAA Identifier: PS44
Lat/Long: 40-36-41.2370N 078-19-32.0510W
40-36.687283N 078-19.534183W
40.6114547,-78.3255697
(estimated)
Elevation: 1035 ft. / 315 m (estimated)
Variation: 09W (1985)
Time zone: UTC -4 (UTC -5 during Standard Time)
Zip code: 16617

Heliport Operations

Heliport use: Private use. Permission required prior to landing
Activation date: 07/1985
Control tower: no
ARTCC: CLEVELAND CENTER
FSS: ALTOONA FLIGHT SERVICE STATION
Attendance: UNATNDD
Wind indicator: yes
Segmented circle: no

Heliport Communications

WX ASOS at AOO (19 nm S): 127.125 (814-793-9655)
WX AWOS-3 at PSB (20 nm NE): 127.525 (814-343-4531)

Nearby radio navigation aids

VOR radial/distance  VOR name  Freq  Var
RECr088/19.6REVLOC VOR/DME110.6009W
PSBr230/23.7PHILIPSBURG VORTAC115.5010W
JSTr059/29.2JOHNSTOWN VOR/DME113.0006W
ETGr203/37.1KEATING VORTAC116.0010W

Heliport Services

Runway Information

Helipad H1

Dimensions: 30 x 30 ft. / 9 x 9 m
Surface: turf
Traffic pattern: leftleft

Heliport Ownership and Management from official FAA records

Ownership: Privately-owned
Owner: MID-STATE BANK & TRUST CO.
1130 - 12TH AVENUE
ALTOONA, PA 16603
Phone 814-742-6791
Manager: R. BLAINE LOCKE
1130 - 12TH AVENUE
ALTOONA, PA 16603

Additional Remarks

FOR CD CTC JOHNSTOWN APCH AT 814-532-5960, WHEN APCH CLSD CTC CLEVELAND ARTCC AT 440-774-0234.

Instrument Procedures

There are no published instrument procedures at PS44.

Some nearby airports with instrument procedures:

KAOO - Altoona-Blair County Airport (19 nm S)
KPSB - Mid-State Airport (20 nm NE)
9G8 - Ebensburg Airport (22 nm SW)
KUNV - University Park Airport (26 nm NE)
KFIG - Clearfield-Lawrence Airport (27 nm N)
 
Loc | Ops | Rwys | IFR | FBO | Links
Com | Nav | Svcs | Stats | Notes
Area around PS44 (Operations Center Heliport)
 
Road maps at: MapQuest Bing Google
 
Aerial photo
No photo
 
Sectional chart

 
Airport distance calculator
Flying to Operations Center Heliport? Find the distance to fly.

From to PS44

Sunrise and sunset
Times for 02-Jul-2020
 Local
(UTC-4)
 Zulu
(UTC)
Morning civil twilight05:1509:15
Sunrise05:4809:48
Sunset20:4700:47
Evening civil twilight21:2001:20

Current date and time
Zulu (UTC)  02-Jul-2020 23:29:28
Local (UTC-4)  02-Jul-2020 19:29:28
 
METAR
KAOO 
19nm S 
022253Z AUTO 34005KT 10SM CLR 30/16 A2995 RMK AO2 SLP130 T03000161
KUNV 
27nm NE 
022253Z 34008KT 10SM SCT100 30/15 A2992
KFIG 
27nm N 
022254Z AUTO 33005KT 10SM CLR 30/14 A2995 RMK AO2 SLP133 T03000144
KJST 
29nm SW 
022254Z AUTO 34009KT 10SM CLR 29/12 A3000 RMK AO2 SLP141 T02890117
KRVL 
32nm E 
022315Z AUTO 00000KT 10SM CLR 30/18 A2988 RMK AO2
KHMZ 
33nm S 
022315Z AUTO 00000KT 10SM CLR 31/14 A2993 RMK AO2 T03060135
KIDI 
35nm W 
022315Z AUTO 32006KT 10SM CLR 29/17 A3000 RMK A01
TAF
KAOO 
19nm S 
022116Z 0221/0318 VRB03KT P6SM SCT070 FM030100 00000KT P6SM SKC FM031400 31008KT P6SM SCT040
NOTAMs
Click for the latest NOTAMs
NOTAMs are issued by the DoD/FAA and will open in a separate window not controlled by AirNav.

 

 
 

Would you like to see your business listed on this page?

 If your business provides an interesting product or service to pilots, flight crews, aircraft, or users of the Operations Center Heliport, you should consider listing it here.  To start the listing process, click on the button below
 
Add a business
 

Other Pages about Operations Center Heliport

Update a link
 
Copyright © AirNav, LLC. All rights reserved. Privacy Policy  Contact